Regional Weather Roundup
Issued by NWS

Home | Current Version | Previous Version | Graphics & Text | Print | Product List | Glossary On
Versions: 1 2 3 4 5 6 7 8 9 10 11 12 13 14 15 16 17 18 19 20 21 22 23 24 25 26 27 28 29 30 31 32 33 34 35 36 37 38 39 40 41 42 43 44 45 46 47 48 49 50
000
ASUS45 KCYS 210710
RWRWY

WYOMING REGIONAL WEATHER ROUNDUP
NATIONAL WEATHER SERVICE CHEYENNE WY
100 AM MDT THU AUG 21 2014

NOTE:  "FAIR" INDICATES FEW OR NO CLOUDS BELOW 12,000 FEET
WITH NO SIGNIFICANT WEATHER AND/OR OBSTRUCTIONS TO VISIBILITY.

WYZ001-210800-
YELLOWSTONE NATIONAL PARK

CITY           SKY/WX    TMP DP  RH WIND       PRES   REMARKS
LK YELLOWSTONE   N/A     43  42  97 CALM      30.19F
W YELLOWSTONE  NOT AVBL

$$
WYZ002>013-054>058-071-098>099-210800-
NORTHERN WYOMING

CITY           SKY/WX    TMP DP  RH WIND       PRES   REMARKS
JACKSON        CLOUDY    52  50  93 CALM      30.14F
CODY           MOCLDY    57  46  67 NW6       30.00F
GREYBULL       CLOUDY    65  52  62 W6        29.93R
WORLAND        PTCLDY    61  49  64 CALM      29.95S
SHERIDAN       CLOUDY    63  49  60 NW15      29.95R
BUFFALO        CLOUDY    60  47  61 S3        29.99R
GILLETTE       CLOUDY    63  50  62 W9        29.96R
HULETT         FAIR      61  52  72 MISG      29.93
NEWCASTLE      FAIR      70  45  40 CALM      29.90

$$
WYZ014>020-022>026-101>103-210800-
CENTRAL WYOMING

CITY           SKY/WX    TMP DP  RH WIND       PRES   REMARKS
BIG PINEY      CLOUDY    50  47  89 S9        30.17F
PINEDALE       CLOUDY    50  45  81 SE7       30.19F
DUBOIS         FAIR      46  41  81 NW13      30.12F
LANDER         MOCLDY    63  42  46 S7        30.02S
RIVERTON       MOCLDY    62  40  44 NW16      30.03R
CASPER         MOCLDY    63  45  51 W8        30.01R
DOUGLAS        CLOUDY    65  48  54 CALM      29.98S

$$
WYZ021-027>030-104>119-210800-
SOUTHERN WYOMING

CITY           SKY/WX    TMP DP  RH WIND       PRES   REMARKS
EVANSTON       LGT RAIN  51  49  92 CALM      30.24F
KEMMERER       CLOUDY    50  45  81 S14       30.20F
FORT BRIDGER     N/A     52  51  96 SW6       30.27R
ROCK SPRINGS   CLOUDY    51  46  83 NW17G28   30.21R
DIXON          PTSUNNY   53  50  89 NE3       30.19R
RAWLINS        MOCLDY    55  45  68 W7        30.14R
SARATOGA       FAIR      52  46  82 MISG      30.17R
LARAMIE        PTCLDY    53  43  68 S12G18    30.13F
CHEYENNE       PTCLDY    62  45  53 W15       30.06F
TORRINGTON     CLEAR     63  49  60 W3        29.90F
PINE BLUFFS    RAIN      63  54  72 SW5       30.02R

$$



USA.gov is the U.S. government's official web portal to all federal, state and local government web resources and services.